Regional Weather Roundup
Issued by NWS

Home | Current Version | Previous Version | Graphics & Text | Print | Product List | Glossary On
Versions: 1 2 3 4 5 6 7 8 9 10 11 12 13 14 15 16 17 18 19 20 21 22 23 24 25 26 27 28 29 30 31 32 33 34 35 36 37 38 39 40 41 42 43 44 45 46 47 48 49 50
000
ASUS43 KLMK 292302
RWRKY
KENTUCKY REGIONAL WEATHER ROUNDUP
NATIONAL WEATHER SERVICE LOUISVILLE KY
700 PM EDT MON AUG 29 2016

NOTE "FAIR" INDICATES FEW OR NO CLOUDS BELOW 12,000 FEET
WITH NO SIGNIFICANT WEATHER AND/OR OBSTRUCTIONS TO VISIBILITY.

KYZ001>023-026-027-061>063-070>075-300000-
WESTERN AND SOUTH CENTRAL KENTUCKY

CITY           SKY/WX    TMP DP  RH WIND       PRES   REMARKS
PADUCAH        SUNNY     89  73  59 NE8       30.06F HX  97
HENDERSON      SUNNY     90  68  48 E7        30.08S HX  93
OWENSBORO      SUNNY     90  73  57 NE7       30.10S HX  98
HOPKINSVILLE   SUNNY     88  74  63 NE9       30.07F HX  97
BOWLING GREEN  SUNNY     89  73  59 NE7       30.09S HX  97
GLASGOW        SUNNY     82  71  68 NE3       30.11S
$$

KYZ024-025-028>034-038-045-046-053-300000-
NORTH CENTRAL KENTUCKY

CITY           SKY/WX    TMP DP  RH WIND       PRES   REMARKS
LOUISVILLE/SDF MOSUNNY   90  69  50 E10       30.11S HX  94
LOUISVILLE/LOU SUNNY     89  68  49 E10       30.12R HX  93
FORT KNOX      SUNNY     88  71  57 N6        30.11S HX  94
$$

KYZ035>037-039>044-047>052-055>060-089>105-300000-
NORTHEAST KENTUCKY

CITY           SKY/WX    TMP DP  RH WIND       PRES   REMARKS
LEXINGTON      MOSUNNY   85  72  65 NE6       30.15S HX  91
COVINGTON      MOSUNNY   86  71  60 E8        30.16S HX  91
FRANKFORT      MOSUNNY   83  71  67 N5        30.14S
$$

KYZ054-064>069-076>088-106>120-300000-
SOUTHEAST KENTUCKY

CITY           SKY/WX    TMP DP  RH WIND       PRES   REMARKS
JACKSON        CLOUDY    72  69  90 CALM      30.17R
LONDON         MOSUNNY   78  71  79 N6        30.14S
SOMERSET       MOSUNNY   82  68  61 N9        30.13F
MIDDLESBORO    PTSUNNY   80  72  77 CALM      30.14S
MONTICELLO     MOCLDY   N/A N/A N/A N10       30.14S
$$





USA.gov is the U.S. government's official web portal to all federal, state and local government web resources and services.